Time,TemperatureF,DewpointF,PressureIn,WindDirection,WindDirectionDegrees,WindSpeedMPH,WindSpeedGustMPH,Humidity,HourlyPrecipIn,Conditions,Clouds,dailyrainin,SoftwareType,DateUTC
2013-09-20 00:02:00,61.6,52.1,29.74,SW,225,0.0,3.0,70,0.00,,,0.00,NetBSD+Arduino,2013-09-20 07:02:00,
2013-09-20 00:08:00,61.5,51.5,29.74,SW,225,0.4,3.0,69,0.00,,,0.00,NetBSD+Arduino,2013-09-20 07:08:00,
2013-09-20 00:13:00,61.6,51.3,29.73,SW,225,0.0,3.0,69,0.00,,,0.00,NetBSD+Arduino,2013-09-20 07:13:00,
2013-09-20 00:18:00,61.3,50.9,29.73,SW,225,0.9,3.0,68,0.00,,,0.00,NetBSD+Arduino,2013-09-20 07:18:00,
2013-09-20 00:23:00,61.1,50.5,29.73,SW,225,0.0,3.0,68,0.00,,,0.00,NetBSD+Arduino,2013-09-20 07:23:00,
2013-09-20 00:28:00,60.8,50.9,29.73,East,90,2.2,3.0,69,0.00,,,0.00,NetBSD+Arduino,2013-09-20 07:28:00,
2013-09-20 00:33:00,60.4,51.2,29.73,SW,225,0.0,3.0,71,0.00,,,0.00,NetBSD+Arduino,2013-09-20 07:33:00,
2013-09-20 00:38:00,60.0,51.9,29.73,East,90,0.0,0.0,74,0.00,,,0.00,NetBSD+Arduino,2013-09-20 07:38:00,
2013-09-20 00:43:00,60.0,52.1,29.72,South,180,1.2,1.5,75,0.00,,,0.00,NetBSD+Arduino,2013-09-20 07:43:00,
2013-09-20 00:48:00,59.8,51.7,29.73,SW,225,1.8,3.0,74,0.00,,,0.00,NetBSD+Arduino,2013-09-20 07:48:00,
2013-09-20 00:53:00,59.8,51.6,29.73,South,180,1.1,3.0,74,0.00,,,0.00,NetBSD+Arduino,2013-09-20 07:53:00,
2013-09-20 00:58:00,59.6,51.8,29.73,East,90,2.1,3.0,75,0.00,,,0.00,NetBSD+Arduino,2013-09-20 07:58:00,
2013-09-20 01:03:00,59.4,51.9,29.73,South,180,0.0,1.5,76,0.00,,,0.00,NetBSD+Arduino,2013-09-20 08:03:00,
2013-09-20 01:08:00,59.5,52.1,29.72,South,180,1.1,3.0,76,0.00,,,0.00,NetBSD+Arduino,2013-09-20 08:08:00,
2013-09-20 01:13:00,59.2,52.0,29.72,East,90,0.3,3.0,77,0.00,,,0.00,NetBSD+Arduino,2013-09-20 08:13:00,
2013-09-20 01:18:00,58.9,52.2,29.73,South,180,0.6,1.5,78,0.00,,,0.00,NetBSD+Arduino,2013-09-20 08:18:00,
2013-09-20 01:23:00,58.8,52.0,29.73,South,180,1.9,3.0,78,0.00,,,0.00,NetBSD+Arduino,2013-09-20 08:23:00,
2013-09-20 01:28:00,58.8,51.9,29.73,South,180,2.1,4.5,77,0.00,,,0.00,NetBSD+Arduino,2013-09-20 08:28:00,
2013-09-20 01:33:00,58.5,51.9,29.73,East,90,0.0,3.0,78,0.00,,,0.00,NetBSD+Arduino,2013-09-20 08:33:00,
2013-09-20 01:38:00,58.3,51.8,29.73,South,180,0.0,0.0,78,0.00,,,0.00,NetBSD+Arduino,2013-09-20 08:38:00,
2013-09-20 01:43:00,58.0,51.6,29.72,South,180,0.9,3.0,79,0.00,,,0.00,NetBSD+Arduino,2013-09-20 08:43:00,
2013-09-20 01:48:00,57.8,51.1,29.72,South,180,0.0,3.0,78,0.00,,,0.00,NetBSD+Arduino,2013-09-20 08:48:00,
2013-09-20 01:53:00,57.6,51.0,29.73,NE,45,0.0,1.5,78,0.00,,,0.00,NetBSD+Arduino,2013-09-20 08:53:00,
2013-09-20 01:58:00,57.5,51.2,29.72,SW,225,0.0,0.0,79,0.00,,,0.00,NetBSD+Arduino,2013-09-20 08:58:00,
2013-09-20 02:03:00,57.4,51.3,29.72,South,180,0.0,1.5,79,0.00,,,0.00,NetBSD+Arduino,2013-09-20 09:03:00,
2013-09-20 02:08:00,57.3,51.5,29.72,South,180,0.0,0.0,80,0.00,,,0.00,NetBSD+Arduino,2013-09-20 09:08:00,
2013-09-20 02:13:00,57.2,51.5,29.72,SW,225,0.0,1.5,81,0.00,,,0.00,NetBSD+Arduino,2013-09-20 09:13:00,
2013-09-20 02:18:00,57.2,51.5,29.72,South,180,1.5,3.0,81,0.00,,,0.00,NetBSD+Arduino,2013-09-20 09:18:00,
2013-09-20 02:23:00,57.3,51.5,29.72,South,180,1.5,3.0,80,0.00,,,0.00,NetBSD+Arduino,2013-09-20 09:23:00,
2013-09-20 02:28:00,57.5,51.3,29.72,SW,225,0.0,3.0,80,0.00,,,0.00,NetBSD+Arduino,2013-09-20 09:28:00,
2013-09-20 02:33:00,57.5,51.2,29.72,South,180,0.0,3.0,79,0.00,,,0.00,NetBSD+Arduino,2013-09-20 09:33:00,
2013-09-20 02:38:00,57.3,51.3,29.72,NE,45,0.0,1.5,80,0.00,,,0.00,NetBSD+Arduino,2013-09-20 09:38:00,
2013-09-20 02:43:00,57.1,51.3,29.71,SW,225,0.3,3.0,80,0.00,,,0.00,NetBSD+Arduino,2013-09-20 09:43:00,
2013-09-20 02:48:00,57.2,51.0,29.72,SW,225,1.8,3.0,79,0.00,,,0.00,NetBSD+Arduino,2013-09-20 09:48:00,
2013-09-20 02:53:00,57.0,51.0,29.71,South,180,3.3,4.5,80,0.00,,,0.00,NetBSD+Arduino,2013-09-20 09:53:00,
2013-09-20 02:58:00,57.2,51.3,29.71,SW,225,3.0,7.5,80,0.00,,,0.00,NetBSD+Arduino,2013-09-20 09:58:00,
2013-09-20 03:03:00,57.6,51.6,29.71,SW,225,5.7,7.5,80,0.00,,,0.00,NetBSD+Arduino,2013-09-20 10:03:00,
2013-09-20 03:08:00,57.9,51.6,29.71,South,180,4.2,7.5,79,0.00,,,0.00,NetBSD+Arduino,2013-09-20 10:08:00,
2013-09-20 03:13:00,58.1,51.5,29.71,SW,225,2.7,7.5,78,0.00,,,0.00,NetBSD+Arduino,2013-09-20 10:13:00,
2013-09-20 03:18:00,58.2,51.3,29.70,South,180,0.6,6.0,77,0.00,,,0.00,NetBSD+Arduino,2013-09-20 10:18:00,
2013-09-20 03:24:00,58.2,51.0,29.70,South,180,3.0,6.0,76,0.00,,,0.00,NetBSD+Arduino,2013-09-20 10:24:00,
2013-09-20 03:29:00,58.0,51.0,29.71,South,180,2.1,6.0,77,0.00,,,0.00,NetBSD+Arduino,2013-09-20 10:29:00,
2013-09-20 03:34:00,58.0,51.1,29.70,South,180,3.0,6.0,77,0.00,,,0.00,NetBSD+Arduino,2013-09-20 10:34:00,
2013-09-20 03:39:00,57.9,51.0,29.70,SW,225,3.9,6.0,77,0.00,,,0.00,NetBSD+Arduino,2013-09-20 10:39:00,
2013-09-20 03:44:00,57.8,50.8,29.70,South,180,3.3,6.0,77,0.00,,,0.00,NetBSD+Arduino,2013-09-20 10:44:00,
2013-09-20 03:49:00,57.7,50.5,29.70,South,180,3.3,7.5,76,0.00,,,0.00,NetBSD+Arduino,2013-09-20 10:49:00,
2013-09-20 03:54:00,57.9,50.2,29.70,South,180,4.5,7.5,75,0.00,,,0.00,NetBSD+Arduino,2013-09-20 10:54:00,
2013-09-20 03:59:00,57.9,50.1,29.70,South,180,1.8,7.5,75,0.00,,,0.00,NetBSD+Arduino,2013-09-20 10:59:00,
2013-09-20 04:04:00,57.7,50.1,29.70,NW,314,3.9,6.0,75,0.00,,,0.00,NetBSD+Arduino,2013-09-20 11:04:00,
2013-09-20 04:09:00,57.7,49.9,29.69,SW,225,5.1,7.5,75,0.00,,,0.00,NetBSD+Arduino,2013-09-20 11:09:00,
2013-09-20 04:15:00,57.8,49.8,29.69,SW,225,3.0,7.5,74,0.00,,,0.00,NetBSD+Arduino,2013-09-20 11:15:00,
2013-09-20 04:20:00,57.8,50.2,29.69,South,180,3.0,9.0,75,0.00,,,0.00,NetBSD+Arduino,2013-09-20 11:20:00,
2013-09-20 04:25:00,57.7,50.1,29.69,South,180,1.2,9.0,75,0.00,,,0.00,NetBSD+Arduino,2013-09-20 11:25:00,
2013-09-20 04:30:00,57.7,50.1,29.69,SW,225,3.0,7.5,75,0.00,,,0.00,NetBSD+Arduino,2013-09-20 11:30:00,
2013-09-20 04:35:00,57.7,50.1,29.69,SW,225,5.7,7.5,75,0.00,,,0.00,NetBSD+Arduino,2013-09-20 11:35:00,
2013-09-20 04:41:00,57.7,50.0,29.68,South,180,3.0,6.0,75,0.00,,,0.00,NetBSD+Arduino,2013-09-20 11:41:00,
2013-09-20 04:46:00,57.5,49.9,29.68,South,180,3.0,6.0,76,0.00,,,0.00,NetBSD+Arduino,2013-09-20 11:46:00,
2013-09-20 04:51:00,57.2,49.7,29.67,SW,225,1.2,4.5,75,0.00,,,0.00,NetBSD+Arduino,2013-09-20 11:51:00,
2013-09-20 04:56:00,57.1,49.9,29.68,SW,225,3.6,9.0,76,0.00,,,0.00,NetBSD+Arduino,2013-09-20 11:56:00,
2013-09-20 05:01:00,57.2,50.0,29.67,SW,225,5.4,6.0,76,0.00,,,0.00,NetBSD+Arduino,2013-09-20 12:01:00,
2013-09-20 05:06:00,57.1,50.0,29.67,SW,225,3.9,6.0,77,0.00,,,0.00,NetBSD+Arduino,2013-09-20 12:06:00,
2013-09-20 05:11:00,57.0,50.1,29.67,South,180,4.2,7.5,77,0.00,,,0.00,NetBSD+Arduino,2013-09-20 12:11:00,
2013-09-20 05:16:00,57.0,50.1,29.67,SW,225,4.2,7.5,77,0.00,,,0.00,NetBSD+Arduino,2013-09-20 12:16:00,
2013-09-20 05:21:00,56.9,49.7,29.67,SW,225,5.1,7.5,76,0.00,,,0.00,NetBSD+Arduino,2013-09-20 12:21:00,
2013-09-20 05:26:00,57.0,49.7,29.67,SW,225,4.8,9.0,76,0.00,,,0.00,NetBSD+Arduino,2013-09-20 12:26:00,
2013-09-20 05:31:00,57.2,49.3,29.67,SW,225,2.1,9.0,75,0.00,,,0.00,NetBSD+Arduino,2013-09-20 12:31:00,
2013-09-20 05:36:00,57.1,49.3,29.66,SW,225,3.0,6.0,75,0.00,,,0.00,NetBSD+Arduino,2013-09-20 12:36:00,
2013-09-20 05:41:00,56.9,49.4,29.66,NE,45,1.2,4.5,75,0.00,,,0.00,NetBSD+Arduino,2013-09-20 12:41:00,
2013-09-20 05:46:00,56.5,49.3,29.66,SW,225,1.8,4.5,76,0.00,,,0.00,NetBSD+Arduino,2013-09-20 12:46:00,
2013-09-20 05:51:00,56.2,49.3,29.66,SW,225,1.2,4.5,77,0.00,,,0.00,NetBSD+Arduino,2013-09-20 12:51:00,
2013-09-20 05:56:00,56.2,49.1,29.66,SW,225,3.0,7.5,77,0.00,,,0.00,NetBSD+Arduino,2013-09-20 12:56:00,
2013-09-20 06:01:00,56.4,49.2,29.66,SW,225,4.8,9.0,76,0.00,,,0.00,NetBSD+Arduino,2013-09-20 13:01:00,
2013-09-20 06:06:00,56.6,49.2,29.65,SW,225,5.2,9.0,76,0.00,,,0.00,NetBSD+Arduino,2013-09-20 13:06:00,
2013-09-20 06:11:00,56.7,49.3,29.66,South,180,3.0,9.0,76,0.00,,,0.00,NetBSD+Arduino,2013-09-20 13:11:00,
2013-09-20 06:16:00,56.7,49.4,29.66,South,180,4.5,9.0,76,0.00,,,0.00,NetBSD+Arduino,2013-09-20 13:16:00,
2013-09-20 06:21:00,56.7,49.3,29.66,SW,225,3.0,6.0,76,0.00,,,0.00,NetBSD+Arduino,2013-09-20 13:21:00,
2013-09-20 06:26:00,56.4,49.2,29.65,South,180,1.8,6.0,76,0.00,,,0.00,NetBSD+Arduino,2013-09-20 13:26:00,
2013-09-20 06:31:00,56.0,49.1,29.66,East,90,1.8,3.0,77,0.00,,,0.00,NetBSD+Arduino,2013-09-20 13:31:00,
2013-09-20 06:36:00,55.9,49.3,29.65,SW,225,4.2,6.0,78,0.00,,,0.00,NetBSD+Arduino,2013-09-20 13:36:00,
2013-09-20 06:41:00,55.5,49.2,29.65,South,180,2.1,6.0,79,0.00,,,0.00,NetBSD+Arduino,2013-09-20 13:41:00,
2013-09-20 06:46:00,55.4,49.0,29.64,SW,225,3.6,4.5,78,0.00,,,0.00,NetBSD+Arduino,2013-09-20 13:46:00,
2013-09-20 06:51:00,55.4,49.1,29.65,SW,225,1.5,6.0,79,0.00,,,0.00,NetBSD+Arduino,2013-09-20 13:51:00,
2013-09-20 06:56:00,55.4,49.1,29.64,South,180,2.1,4.5,79,0.00,,,0.00,NetBSD+Arduino,2013-09-20 13:56:00,
2013-09-20 07:01:00,55.3,49.1,29.65,South,180,2.1,4.5,79,0.00,,,0.00,NetBSD+Arduino,2013-09-20 14:01:00,
2013-09-20 07:06:00,55.3,49.1,29.64,SW,225,3.3,7.5,79,0.00,,,0.00,NetBSD+Arduino,2013-09-20 14:06:00,
2013-09-20 07:11:00,55.7,49.1,29.64,East,90,2.6,7.5,78,0.00,,,0.00,NetBSD+Arduino,2013-09-20 14:11:00,
2013-09-20 07:16:00,56.2,49.4,29.64,South,180,3.9,7.5,78,0.00,,,0.00,NetBSD+Arduino,2013-09-20 14:16:00,
2013-09-20 07:21:00,56.3,49.4,29.64,SW,225,0.0,6.0,77,0.00,,,0.00,NetBSD+Arduino,2013-09-20 14:21:00,
2013-09-20 07:26:00,56.3,49.6,29.64,South,180,1.5,4.5,78,0.00,,,0.00,NetBSD+Arduino,2013-09-20 14:26:00,
2013-09-20 07:31:00,56.4,49.9,29.64,East,90,0.0,3.0,78,0.00,,,0.00,NetBSD+Arduino,2013-09-20 14:31:00,
2013-09-20 07:36:00,56.3,50.0,29.64,East,90,0.6,1.5,79,0.00,,,0.00,NetBSD+Arduino,2013-09-20 14:36:00,
2013-09-20 07:41:00,56.5,50.4,29.64,NE,45,0.0,1.5,79,0.00,,,0.00,NetBSD+Arduino,2013-09-20 14:41:00,
2013-09-20 07:46:00,56.6,50.8,29.64,NE,45,0.0,1.5,80,0.00,,,0.00,NetBSD+Arduino,2013-09-20 14:46:00,
2013-09-20 07:51:00,56.7,50.7,29.64,South,180,0.7,3.0,80,0.00,,,0.00,NetBSD+Arduino,2013-09-20 14:51:00,
2013-09-20 07:56:00,56.7,50.5,29.64,SW,225,0.0,3.0,79,0.00,,,0.00,NetBSD+Arduino,2013-09-20 14:56:00,
2013-09-20 08:01:00,57.0,51.0,29.64,SW,225,2.6,3.0,80,0.00,,,0.00,NetBSD+Arduino,2013-09-20 15:01:00,
2013-09-20 08:06:00,57.3,50.9,29.64,SW,225,3.3,6.0,79,0.00,,,0.00,NetBSD+Arduino,2013-09-20 15:06:00,
2013-09-20 08:11:00,57.9,50.4,29.64,SW,225,0.0,6.0,76,0.00,,,0.00,NetBSD+Arduino,2013-09-20 15:11:00,
2013-09-20 08:16:00,58.4,50.6,29.64,South,180,1.5,4.5,75,0.00,,,0.00,NetBSD+Arduino,2013-09-20 15:16:00,
2013-09-20 08:21:00,58.6,50.5,29.64,SW,225,3.0,6.0,74,0.00,,,0.00,NetBSD+Arduino,2013-09-20 15:21:00,
2013-09-20 08:26:00,59.0,51.1,29.64,East,90,2.4,6.0,74,0.00,,,0.00,NetBSD+Arduino,2013-09-20 15:26:00,
2013-09-20 08:31:00,59.9,51.1,29.64,SW,225,1.9,4.5,72,0.00,,,0.00,NetBSD+Arduino,2013-09-20 15:31:00,
2013-09-20 08:36:00,61.6,51.4,29.64,SW,225,3.0,7.5,69,0.00,,,0.00,NetBSD+Arduino,2013-09-20 15:36:00,
2013-09-20 08:41:00,63.6,51.7,29.64,SW,225,2.1,7.5,65,0.00,,,0.00,NetBSD+Arduino,2013-09-20 15:41:00,
2013-09-20 08:46:00,64.1,51.3,29.64,South,180,2.7,7.5,63,0.00,,,0.00,NetBSD+Arduino,2013-09-20 15:46:00,
2013-09-20 08:51:00,64.5,52.6,29.64,SW,225,3.6,7.5,65,0.00,,,0.00,NetBSD+Arduino,2013-09-20 15:51:00,
2013-09-20 08:56:00,64.9,52.2,29.64,SW,225,4.1,7.5,63,0.00,,,0.00,NetBSD+Arduino,2013-09-20 15:56:00,
2013-09-20 09:01:00,64.3,51.5,29.63,South,180,1.1,7.5,63,0.00,,,0.00,NetBSD+Arduino,2013-09-20 16:01:00,
2013-09-20 09:06:00,64.2,52.4,29.63,SW,225,2.4,6.0,65,0.00,,,0.00,NetBSD+Arduino,2013-09-20 16:06:00,
2013-09-20 09:11:00,63.9,52.1,29.63,South,180,3.6,4.5,65,0.00,,,0.00,NetBSD+Arduino,2013-09-20 16:11:00,
2013-09-20 09:16:00,63.8,52.4,29.63,South,180,2.2,6.0,66,0.00,,,0.00,NetBSD+Arduino,2013-09-20 16:16:00,
2013-09-20 09:21:00,64.4,52.4,29.63,SW,225,1.9,6.0,65,0.00,,,0.00,NetBSD+Arduino,2013-09-20 16:21:00,
2013-09-20 09:26:00,65.3,53.0,29.63,SW,225,1.8,4.5,64,0.00,,,0.00,NetBSD+Arduino,2013-09-20 16:26:00,
2013-09-20 09:31:00,65.1,51.9,29.63,South,180,2.1,6.0,62,0.00,,,0.00,NetBSD+Arduino,2013-09-20 16:31:00,
2013-09-20 09:36:00,65.4,52.6,29.63,South,180,4.1,6.0,63,0.00,,,0.00,NetBSD+Arduino,2013-09-20 16:36:00,
2013-09-20 09:41:00,65.4,52.2,29.63,South,180,1.5,7.5,62,0.00,,,0.00,NetBSD+Arduino,2013-09-20 16:41:00,
2013-09-20 09:46:00,65.7,53.3,29.62,SW,225,4.2,6.0,64,0.00,,,0.00,NetBSD+Arduino,2013-09-20 16:46:00,
2013-09-20 09:51:00,65.5,52.8,29.62,South,180,2.6,6.0,63,0.00,,,0.00,NetBSD+Arduino,2013-09-20 16:51:00,
2013-09-20 09:56:00,66.3,53.1,29.63,SW,225,1.9,6.0,62,0.00,,,0.00,NetBSD+Arduino,2013-09-20 16:56:00,
2013-09-20 10:01:00,67.5,53.6,29.62,SW,225,0.4,3.0,61,0.00,,,0.00,NetBSD+Arduino,2013-09-20 17:01:00,
2013-09-20 10:07:00,67.7,53.6,29.62,South,180,1.2,6.0,60,0.00,,,0.00,NetBSD+Arduino,2013-09-20 17:07:00,
2013-09-20 10:12:00,66.5,52.7,29.62,North,0,0.9,6.0,61,0.00,,,0.00,NetBSD+Arduino,2013-09-20 17:12:00,
2013-09-20 10:17:00,65.9,52.5,29.62,SW,225,3.0,6.0,62,0.00,,,0.00,NetBSD+Arduino,2013-09-20 17:17:00,
2013-09-20 10:22:00,66.3,53.7,29.62,South,180,1.2,4.5,63,0.00,,,0.00,NetBSD+Arduino,2013-09-20 17:22:00,
2013-09-20 10:27:00,66.8,53.4,29.62,South,180,3.0,4.5,62,0.00,,,0.00,NetBSD+Arduino,2013-09-20 17:27:00,
2013-09-20 10:32:00,66.5,53.3,29.62,SW,225,2.4,6.0,62,0.00,,,0.00,NetBSD+Arduino,2013-09-20 17:32:00,
2013-09-20 10:37:00,66.2,53.0,29.62,SW,225,1.5,6.0,62,0.00,,,0.00,NetBSD+Arduino,2013-09-20 17:37:00,
2013-09-20 10:42:00,66.5,54.0,29.62,SW,225,0.6,4.5,63,0.00,,,0.00,NetBSD+Arduino,2013-09-20 17:42:00,
2013-09-20 10:47:00,66.9,54.3,29.62,South,180,3.4,4.5,64,0.00,,,0.00,NetBSD+Arduino,2013-09-20 17:47:00,
2013-09-20 10:52:00,66.9,54.3,29.62,North,0,1.8,6.0,64,0.00,,,0.00,NetBSD+Arduino,2013-09-20 17:52:00,
2013-09-20 10:57:00,66.7,54.0,29.62,South,180,2.7,6.0,63,0.00,,,0.00,NetBSD+Arduino,2013-09-20 17:57:00,
2013-09-20 11:02:00,67.0,54.2,29.62,SW,225,1.2,6.0,63,0.00,,,0.00,NetBSD+Arduino,2013-09-20 18:02:00,
2013-09-20 11:07:00,67.5,54.8,29.61,South,180,4.2,6.0,63,0.00,,,0.00,NetBSD+Arduino,2013-09-20 18:07:00,
2013-09-20 11:12:00,67.2,54.0,29.61,South,180,4.2,7.5,62,0.00,,,0.00,NetBSD+Arduino,2013-09-20 18:12:00,
2013-09-20 11:17:00,67.3,54.1,29.61,South,180,1.5,4.5,62,0.00,,,0.00,NetBSD+Arduino,2013-09-20 18:17:00,
2013-09-20 11:22:00,67.8,54.8,29.61,East,90,2.7,6.0,63,0.00,,,0.00,NetBSD+Arduino,2013-09-20 18:22:00,
2013-09-20 11:27:00,68.1,54.5,29.61,South,180,5.1,7.5,61,0.00,,,0.00,NetBSD+Arduino,2013-09-20 18:27:00,
2013-09-20 11:32:00,67.8,54.5,29.60,South,180,0.0,9.0,61,0.00,,,0.00,NetBSD+Arduino,2013-09-20 18:32:00,
2013-09-20 11:37:00,68.1,54.0,29.60,East,90,1.2,9.0,60,0.00,,,0.00,NetBSD+Arduino,2013-09-20 18:37:00,
2013-09-20 11:42:00,69.3,55.2,29.60,East,90,3.0,6.0,60,0.00,,,0.00,NetBSD+Arduino,2013-09-20 18:42:00,
2013-09-20 11:47:00,70.3,54.8,29.60,South,180,2.1,6.0,58,0.00,,,0.00,NetBSD+Arduino,2013-09-20 18:47:00,
2013-09-20 11:53:00,71.1,55.2,29.60,East,90,3.0,6.0,57,0.00,,,0.00,NetBSD+Arduino,2013-09-20 18:53:00,
2013-09-20 11:58:00,70.0,54.5,29.59,South,180,1.5,7.5,58,0.00,,,0.00,NetBSD+Arduino,2013-09-20 18:58:00,
2013-09-20 12:03:00,70.8,54.8,29.59,East,90,2.7,3.0,57,0.00,,,0.00,NetBSD+Arduino,2013-09-20 19:03:00,
2013-09-20 12:08:00,71.0,55.5,29.59,SW,225,2.1,7.5,58,0.00,,,0.00,NetBSD+Arduino,2013-09-20 19:08:00,
2013-09-20 12:13:00,71.8,56.1,29.59,SW,225,3.6,7.5,57,0.00,,,0.00,NetBSD+Arduino,2013-09-20 19:13:00,
2013-09-20 12:18:00,72.6,55.6,29.59,South,180,0.7,6.0,55,0.00,,,0.00,NetBSD+Arduino,2013-09-20 19:18:00,
2013-09-20 12:23:00,72.7,55.2,29.59,NE,45,2.7,6.0,54,0.00,,,0.00,NetBSD+Arduino,2013-09-20 19:23:00,
2013-09-20 12:28:00,73.1,55.3,29.59,East,90,4.1,9.0,53,0.00,,,0.00,NetBSD+Arduino,2013-09-20 19:28:00,
2013-09-20 12:34:00,72.1,55.2,29.59,South,180,3.6,6.0,55,0.00,,,0.00,NetBSD+Arduino,2013-09-20 19:34:00,
2013-09-20 12:39:00,71.8,55.6,29.58,North,0,0.3,7.5,56,0.00,,,0.00,NetBSD+Arduino,2013-09-20 19:39:00,
2013-09-20 12:44:00,71.5,54.5,29.58,NW,315,0.0,6.0,55,0.00,,,0.00,NetBSD+Arduino,2013-09-20 19:44:00,
2013-09-20 12:49:00,71.7,55.7,29.58,South,180,3.3,6.0,57,0.00,,,0.00,NetBSD+Arduino,2013-09-20 19:49:00,
2013-09-20 12:54:00,71.6,56.1,29.59,South,180,1.5,7.5,58,0.00,,,0.00,NetBSD+Arduino,2013-09-20 19:54:00,
2013-09-20 12:59:00,72.9,56.0,29.59,South,180,2.7,4.5,55,0.00,,,0.00,NetBSD+Arduino,2013-09-20 19:59:00,
2013-09-20 13:04:00,73.7,55.7,29.58,South,180,0.0,6.0,53,0.00,,,0.00,NetBSD+Arduino,2013-09-20 20:04:00,
2013-09-20 13:09:00,74.9,56.4,29.58,South,180,2.4,6.0,52,0.00,,,0.00,NetBSD+Arduino,2013-09-20 20:09:00,
2013-09-20 13:14:00,75.2,54.1,29.58,South,180,2.7,7.5,47,0.00,,,0.00,NetBSD+Arduino,2013-09-20 20:14:00,
2013-09-20 13:19:00,74.8,54.0,29.58,SW,225,1.2,6.0,48,0.00,,,0.00,NetBSD+Arduino,2013-09-20 20:19:00,
2013-09-20 13:24:00,74.3,53.5,29.57,SW,225,1.8,4.5,48,0.00,,,0.00,NetBSD+Arduino,2013-09-20 20:24:00,
2013-09-20 13:29:00,75.5,54.7,29.57,SW,225,1.5,7.5,48,0.00,,,0.00,NetBSD+Arduino,2013-09-20 20:29:00,
2013-09-20 13:34:00,76.0,53.3,29.57,SW,225,1.8,10.4,45,0.00,,,0.00,NetBSD+Arduino,2013-09-20 20:34:00,
2013-09-20 13:39:00,76.1,53.8,29.57,North,0,3.0,7.5,45,0.00,,,0.00,NetBSD+Arduino,2013-09-20 20:39:00,
2013-09-20 13:44:00,75.1,54.3,29.57,SW,225,2.4,6.0,48,0.00,,,0.00,NetBSD+Arduino,2013-09-20 20:44:00,
2013-09-20 13:49:00,75.6,53.3,29.57,West,273,0.6,7.5,45,0.00,,,0.00,NetBSD+Arduino,2013-09-20 20:49:00,
2013-09-20 13:54:00,75.7,54.6,29.57,SW,225,1.2,7.5,47,0.00,,,0.00,NetBSD+Arduino,2013-09-20 20:54:00,
2013-09-20 13:59:00,76.4,54.6,29.57,South,180,0.6,7.5,46,0.00,,,0.00,NetBSD+Arduino,2013-09-20 20:59:00,
2013-09-20 14:04:00,76.3,54.3,29.57,SW,225,1.5,6.0,46,0.00,,,0.00,NetBSD+Arduino,2013-09-20 21:04:00,
2013-09-20 14:09:00,75.3,54.2,29.57,SW,225,2.4,7.5,47,0.00,,,0.00,NetBSD+Arduino,2013-09-20 21:09:00,
2013-09-20 14:14:00,75.3,53.0,29.57,SW,225,3.4,10.4,45,0.00,,,0.00,NetBSD+Arduino,2013-09-20 21:14:00,
2013-09-20 14:19:00,74.8,54.3,29.57,East,90,1.9,10.4,48,0.00,,,0.00,NetBSD+Arduino,2013-09-20 21:19:00,
2013-09-20 14:24:00,74.6,53.8,29.57,SW,225,2.7,9.0,48,0.00,,,0.00,NetBSD+Arduino,2013-09-20 21:24:00,
2013-09-20 14:29:00,74.1,53.9,29.57,SW,225,2.7,10.4,49,0.00,,,0.00,NetBSD+Arduino,2013-09-20 21:29:00,
2013-09-20 14:34:00,73.6,54.2,29.57,South,180,3.4,9.0,50,0.00,,,0.00,NetBSD+Arduino,2013-09-20 21:34:00,
2013-09-20 14:39:00,73.6,54.0,29.56,NE,45,0.4,9.0,50,0.00,,,0.00,NetBSD+Arduino,2013-09-20 21:39:00,
2013-09-20 14:44:00,73.4,53.8,29.56,SW,225,1.2,6.0,50,0.00,,,0.00,NetBSD+Arduino,2013-09-20 21:44:00,
2013-09-20 14:49:00,73.4,53.5,29.56,SW,225,4.5,7.5,49,0.00,,,0.00,NetBSD+Arduino,2013-09-20 21:49:00,
2013-09-20 14:54:00,73.2,53.8,29.56,South,180,0.9,7.5,50,0.00,,,0.00,NetBSD+Arduino,2013-09-20 21:54:00,
2013-09-20 14:59:00,72.5,52.9,29.56,South,180,3.0,11.9,50,0.00,,,0.00,NetBSD+Arduino,2013-09-20 21:59:00,
2013-09-20 15:04:00,72.1,53.6,29.56,West,270,0.0,7.5,52,0.00,,,0.00,NetBSD+Arduino,2013-09-20 22:04:00,
2013-09-20 15:09:00,71.7,54.0,29.56,SW,225,2.7,9.0,53,0.00,,,0.00,NetBSD+Arduino,2013-09-20 22:09:00,
2013-09-20 15:14:00,71.6,53.9,29.56,South,180,3.6,7.5,53,0.00,,,0.00,NetBSD+Arduino,2013-09-20 22:14:00,
2013-09-20 15:19:00,71.6,56.1,29.56,West,270,1.2,4.5,58,0.00,,,0.00,NetBSD+Arduino,2013-09-20 22:19:00,
2013-09-20 15:24:00,71.7,53.8,29.57,South,180,3.6,6.0,53,0.00,,,0.00,NetBSD+Arduino,2013-09-20 22:24:00,
2013-09-20 15:29:00,71.9,53.7,29.56,SW,225,2.4,6.0,52,0.00,,,0.00,NetBSD+Arduino,2013-09-20 22:29:00,
2013-09-20 15:34:00,71.8,53.6,29.56,East,90,1.2,9.0,52,0.00,,,0.00,NetBSD+Arduino,2013-09-20 22:34:00,
2013-09-20 15:39:00,71.5,53.8,29.56,West,270,1.9,7.5,53,0.00,,,0.00,NetBSD+Arduino,2013-09-20 22:39:00,
2013-09-20 15:44:00,71.5,53.0,29.56,NW,314,4.1,7.5,52,0.00,,,0.00,NetBSD+Arduino,2013-09-20 22:44:00,
2013-09-20 15:49:00,71.0,53.6,29.56,West,270,3.0,9.0,54,0.00,,,0.00,NetBSD+Arduino,2013-09-20 22:49:00,
2013-09-20 15:54:00,70.8,53.7,29.56,SW,225,0.0,7.5,54,0.00,,,0.00,NetBSD+Arduino,2013-09-20 22:54:00,
2013-09-20 15:59:00,70.6,53.2,29.57,SW,225,1.9,7.5,54,0.00,,,0.00,NetBSD+Arduino,2013-09-20 22:59:00,
2013-09-20 16:04:00,70.5,53.6,29.56,SW,225,2.6,10.4,55,0.00,,,0.00,NetBSD+Arduino,2013-09-20 23:04:00,
2013-09-20 16:09:00,70.5,53.1,29.57,SW,225,3.7,6.0,54,0.00,,,0.00,NetBSD+Arduino,2013-09-20 23:09:00,
2013-09-20 16:14:00,70.6,53.6,29.57,SW,225,1.2,4.5,55,0.00,,,0.00,NetBSD+Arduino,2013-09-20 23:14:00,
2013-09-20 16:19:00,71.0,53.6,29.57,West,270,3.7,9.0,54,0.00,,,0.00,NetBSD+Arduino,2013-09-20 23:19:00,
2013-09-20 16:24:00,70.8,52.9,29.57,SW,225,4.8,10.4,53,0.00,,,0.00,NetBSD+Arduino,2013-09-20 23:24:00,
2013-09-20 16:29:00,70.4,52.8,29.57,SW,225,1.8,10.4,53,0.00,,,0.00,NetBSD+Arduino,2013-09-20 23:29:00,
2013-09-20 16:34:00,70.3,53.6,29.57,South,180,4.1,7.5,55,0.00,,,0.00,NetBSD+Arduino,2013-09-20 23:34:00,
2013-09-20 16:39:00,69.8,53.7,29.57,SW,225,2.2,9.0,56,0.00,,,0.00,NetBSD+Arduino,2013-09-20 23:39:00,
2013-09-20 16:44:00,69.8,54.1,29.57,SW,225,1.1,11.9,57,0.00,,,0.00,NetBSD+Arduino,2013-09-20 23:44:00,
2013-09-20 16:49:00,69.6,54.4,29.57,West,270,1.2,6.0,58,0.00,,,0.00,NetBSD+Arduino,2013-09-20 23:49:00,
2013-09-20 16:54:00,69.3,54.0,29.57,SW,225,2.2,7.5,58,0.00,,,0.00,NetBSD+Arduino,2013-09-20 23:54:00,
2013-09-20 16:59:00,69.2,54.0,29.57,SW,225,5.6,11.9,58,0.00,,,0.00,NetBSD+Arduino,2013-09-20 23:59:00,
2013-09-20 17:04:00,68.8,54.3,29.57,SW,225,3.4,10.4,59,0.00,,,0.00,NetBSD+Arduino,2013-09-21 00:04:00,
2013-09-20 17:09:00,68.6,55.2,29.57,West,270,0.6,9.0,62,0.00,,,0.00,NetBSD+Arduino,2013-09-21 00:09:00,
2013-09-20 17:14:00,68.5,55.2,29.57,SW,225,2.1,6.0,62,0.00,,,0.00,NetBSD+Arduino,2013-09-21 00:14:00,
2013-09-20 17:19:00,68.3,55.7,29.58,NW,315,1.5,9.0,64,0.00,,,0.00,NetBSD+Arduino,2013-09-21 00:19:00,
2013-09-20 17:24:00,67.9,55.7,29.58,SW,225,2.4,11.9,65,0.00,,,0.00,NetBSD+Arduino,2013-09-21 00:24:00,
2013-09-20 17:29:00,67.2,55.2,29.59,SW,225,3.0,6.0,65,0.00,,,0.00,NetBSD+Arduino,2013-09-21 00:29:00,
2013-09-20 17:34:00,66.6,55.0,29.59,East,90,1.9,10.4,66,0.00,,,0.00,NetBSD+Arduino,2013-09-21 00:34:00,
2013-09-20 17:39:00,66.2,54.5,29.59,SW,225,3.0,6.0,65,0.00,,,0.00,NetBSD+Arduino,2013-09-21 00:39:00,
2013-09-20 17:44:00,65.9,54.8,29.59,West,270,2.2,6.0,67,0.00,,,0.00,NetBSD+Arduino,2013-09-21 00:44:00,
2013-09-20 17:49:00,65.6,53.2,29.59,NE,45,0.7,9.0,64,0.00,,,0.00,NetBSD+Arduino,2013-09-21 00:49:00,
2013-09-20 17:54:00,65.4,52.7,29.59,South,180,1.5,10.4,63,0.00,,,0.00,NetBSD+Arduino,2013-09-21 00:54:00,
2013-09-20 17:59:00,65.4,52.6,29.60,SW,225,3.0,6.0,63,0.00,,,0.00,NetBSD+Arduino,2013-09-21 00:59:00,
2013-09-20 18:04:00,65.2,52.6,29.59,SW,225,4.2,14.9,63,0.00,,,0.00,NetBSD+Arduino,2013-09-21 01:04:00,
2013-09-20 18:09:00,64.8,52.0,29.60,NW,315,2.1,13.4,63,0.00,,,0.00,NetBSD+Arduino,2013-09-21 01:09:00,
2013-09-20 18:14:00,64.6,52.4,29.60,SW,225,1.9,11.9,64,0.00,,,0.00,NetBSD+Arduino,2013-09-21 01:14:00,
2013-09-20 18:19:00,64.4,52.4,29.60,West,270,1.8,10.4,65,0.00,,,0.00,NetBSD+Arduino,2013-09-21 01:19:00,
2013-09-20 18:24:00,64.0,53.0,29.60,SW,225,1.5,9.0,67,0.00,,,0.00,NetBSD+Arduino,2013-09-21 01:24:00,
2013-09-20 18:29:00,63.8,52.6,29.60,NW,315,2.2,10.4,67,0.00,,,0.00,NetBSD+Arduino,2013-09-21 01:29:00,
2013-09-20 18:34:00,63.6,52.8,29.61,West,270,3.0,9.0,67,0.00,,,0.00,NetBSD+Arduino,2013-09-21 01:34:00,
2013-09-20 18:39:00,63.3,53.1,29.62,SW,225,4.5,7.5,69,0.00,,,0.00,NetBSD+Arduino,2013-09-21 01:39:00,
2013-09-20 18:44:00,63.2,53.2,29.62,SW,225,1.1,9.0,69,0.00,,,0.00,NetBSD+Arduino,2013-09-21 01:44:00,
2013-09-20 18:49:00,62.8,54.7,29.63,South,180,5.6,7.5,74,0.00,,,0.00,NetBSD+Arduino,2013-09-21 01:49:00,
2013-09-20 18:54:00,61.7,55.9,29.64,SW,225,4.8,11.9,81,0.00,,,0.00,NetBSD+Arduino,2013-09-21 01:54:00,
2013-09-20 18:59:00,60.3,56.6,29.63,SW,225,2.1,9.0,87,0.03,,,0.03,NetBSD+Arduino,2013-09-21 01:59:00,
2013-09-20 19:04:00,59.4,57.0,29.63,SW,225,0.9,6.0,91,0.03,,,0.03,NetBSD+Arduino,2013-09-21 02:04:00,
2013-09-20 19:09:00,58.9,56.9,29.64,SW,225,2.7,7.5,93,0.05,,,0.05,NetBSD+Arduino,2013-09-21 02:09:00,
2013-09-20 19:14:00,58.5,56.7,29.64,SW,225,0.0,6.0,93,0.06,,,0.06,NetBSD+Arduino,2013-09-21 02:14:00,
2013-09-20 19:20:00,58.4,56.9,29.64,SW,225,2.7,7.5,94,0.06,,,0.06,NetBSD+Arduino,2013-09-21 02:20:00,
2013-09-20 19:25:00,58.1,56.4,29.63,West,270,0.0,9.0,94,0.08,,,0.08,NetBSD+Arduino,2013-09-21 02:25:00,
2013-09-20 19:30:00,58.0,56.8,29.62,South,180,1.8,3.0,95,0.10,,,0.10,NetBSD+Arduino,2013-09-21 02:30:00,
2013-09-20 19:35:00,57.9,56.7,29.63,South,180,5.1,6.0,95,0.10,,,0.10,NetBSD+Arduino,2013-09-21 02:35:00,
2013-09-20 19:40:00,57.7,56.8,29.63,East,90,3.0,9.0,96,0.10,,,0.10,NetBSD+Arduino,2013-09-21 02:40:00,
2013-09-20 19:45:00,57.6,56.9,29.63,South,180,4.5,10.4,97,0.10,,,0.10,NetBSD+Arduino,2013-09-21 02:45:00,
2013-09-20 19:51:00,57.4,56.5,29.63,SW,225,4.2,9.0,96,0.10,,,0.10,NetBSD+Arduino,2013-09-21 02:51:00,
2013-09-20 19:57:00,57.5,56.7,29.62,South,180,4.8,7.5,97,0.08,,,0.10,NetBSD+Arduino,2013-09-21 02:57:00,
2013-09-20 20:02:00,57.5,56.7,29.63,SW,225,1.8,9.0,97,0.06,,,0.10,NetBSD+Arduino,2013-09-21 03:02:00,
2013-09-20 20:07:00,57.5,56.7,29.62,SW,225,5.1,9.0,97,0.05,,,0.10,NetBSD+Arduino,2013-09-21 03:07:00,
2013-09-20 20:12:00,57.3,56.6,29.62,South,180,2.1,7.5,97,0.05,,,0.10,NetBSD+Arduino,2013-09-21 03:12:00,
2013-09-20 20:17:00,57.3,56.6,29.62,East,90,2.7,7.5,97,0.03,,,0.10,NetBSD+Arduino,2013-09-21 03:17:00,
2013-09-20 20:22:00,57.3,56.6,29.62,SW,225,4.8,7.5,97,0.03,,,0.10,NetBSD+Arduino,2013-09-21 03:22:00,
2013-09-20 20:27:00,57.3,56.6,29.63,South,180,1.5,9.0,97,0.02,,,0.10,NetBSD+Arduino,2013-09-21 03:27:00,
2013-09-20 20:32:00,57.3,56.7,29.63,SW,225,1.8,7.5,97,0.00,,,0.10,NetBSD+Arduino,2013-09-21 03:32:00,
2013-09-20 20:37:00,57.3,56.8,29.62,South,180,3.9,9.0,98,0.00,,,0.10,NetBSD+Arduino,2013-09-21 03:37:00,
2013-09-20 20:43:00,57.3,56.7,29.62,NE,45,0.0,6.0,97,0.00,,,0.10,NetBSD+Arduino,2013-09-21 03:43:00,
2013-09-20 20:48:00,57.3,56.8,29.62,South,180,3.6,6.0,98,0.00,,,0.10,NetBSD+Arduino,2013-09-21 03:48:00,
2013-09-20 20:53:00,57.2,56.5,29.62,SW,225,0.6,3.0,97,0.00,,,0.10,NetBSD+Arduino,2013-09-21 03:53:00,
2013-09-20 20:58:00,57.2,56.5,29.62,SW,225,0.0,3.0,97,0.00,,,0.10,NetBSD+Arduino,2013-09-21 03:58:00,
2013-09-20 21:01:00,57.2,56.5,29.62,SW,225,0.0,3.0,97,0.00,,,0.10,NetBSD+Arduino,2013-09-21 04:01:00,
2013-09-20 21:02:00,57.2,56.5,29.62,West,270,0.0,3.0,97,0.00,,,0.10,NetBSD+Arduino,2013-09-21 04:02:00,
2013-09-20 21:03:00,57.2,56.5,29.62,South,180,0.0,3.0,97,0.00,,,0.10,NetBSD+Arduino,2013-09-21 04:03:00,
2013-09-20 21:07:00,57.2,56.5,29.62,East,90,0.0,4.5,97,0.00,,,0.10,NetBSD+Arduino,2013-09-21 04:07:00,
2013-09-20 21:12:00,57.3,56.8,29.62,NE,45,0.0,3.0,98,0.00,,,0.10,NetBSD+Arduino,2013-09-21 04:12:00,
2013-09-20 21:15:00,57.3,56.8,29.62,South,180,0.0,1.5,98,0.00,,,0.10,NetBSD+Arduino,2013-09-21 04:15:00,
2013-09-20 21:20:00,57.2,56.7,29.62,South,180,0.6,3.0,98,0.00,,,0.10,NetBSD+Arduino,2013-09-21 04:20:00,
2013-09-20 21:25:00,57.3,56.8,29.62,South,180,0.9,4.5,98,0.00,,,0.10,NetBSD+Arduino,2013-09-21 04:25:00,
2013-09-20 21:30:00,57.3,56.9,29.62,South,180,1.8,4.5,98,0.00,,,0.10,NetBSD+Arduino,2013-09-21 04:30:00,
2013-09-20 21:35:00,57.3,56.8,29.62,East,90,0.0,3.0,98,0.00,,,0.10,NetBSD+Arduino,2013-09-21 04:35:00,
2013-09-20 21:41:00,57.3,56.9,29.61,South,180,0.3,1.5,98,0.00,,,0.10,NetBSD+Arduino,2013-09-21 04:41:00,
2013-09-20 21:46:00,57.2,57.0,29.62,South,180,0.6,3.0,98,0.00,,,0.10,NetBSD+Arduino,2013-09-21 04:46:00,
2013-09-20 21:51:00,57.2,57.0,29.62,SW,225,0.0,3.0,98,0.00,,,0.10,NetBSD+Arduino,2013-09-21 04:51:00,
2013-09-20 21:57:00,57.2,57.0,29.61,West,274,0.3,3.0,98,0.00,,,0.10,NetBSD+Arduino,2013-09-21 04:57:00,
2013-09-20 22:02:00,57.3,57.0,29.61,NW,314,0.0,0.0,98,0.00,,,0.10,NetBSD+Arduino,2013-09-21 05:02:00,
2013-09-20 22:07:00,57.3,57.0,29.62,South,180,1.2,3.0,98,0.00,,,0.10,NetBSD+Arduino,2013-09-21 05:07:00,
2013-09-20 22:12:00,57.5,57.4,29.62,South,180,1.5,3.0,99,0.00,,,0.10,NetBSD+Arduino,2013-09-21 05:12:00,
2013-09-20 22:17:00,57.6,57.4,29.62,East,90,0.9,3.0,99,0.00,,,0.10,NetBSD+Arduino,2013-09-21 05:17:00,
2013-09-20 22:22:00,57.7,57.5,29.62,SW,225,0.0,3.0,99,0.00,,,0.10,NetBSD+Arduino,2013-09-21 05:22:00,
2013-09-20 22:27:00,57.7,57.7,29.62,South,180,1.2,3.0,99,0.00,,,0.10,NetBSD+Arduino,2013-09-21 05:27:00,
2013-09-20 22:32:00,57.9,57.8,29.62,South,180,2.4,4.5,99,0.00,,,0.10,NetBSD+Arduino,2013-09-21 05:32:00,
2013-09-20 22:37:00,57.8,57.8,29.62,South,180,0.0,3.0,99,0.00,,,0.10,NetBSD+Arduino,2013-09-21 05:37:00,
2013-09-20 22:42:00,57.9,57.6,29.62,SW,225,0.0,3.0,99,0.00,,,0.10,NetBSD+Arduino,2013-09-21 05:42:00,
2013-09-20 22:47:00,58.0,57.7,29.62,South,180,0.0,0.0,99,0.00,,,0.10,NetBSD+Arduino,2013-09-21 05:47:00,
2013-09-20 22:52:00,58.0,57.7,29.62,South,180,0.0,0.0,99,0.00,,,0.10,NetBSD+Arduino,2013-09-21 05:52:00,
2013-09-20 22:57:00,58.0,57.8,29.62,SW,225,0.0,1.5,99,0.00,,,0.10,NetBSD+Arduino,2013-09-21 05:57:00,
2013-09-20 23:02:00,58.0,57.8,29.62,South,180,1.8,3.0,99,0.00,,,0.10,NetBSD+Arduino,2013-09-21 06:02:00,
2013-09-20 23:07:00,58.2,58.0,29.62,South,180,2.1,4.5,99,0.00,,,0.10,NetBSD+Arduino,2013-09-21 06:07:00,
2013-09-20 23:12:00,58.2,58.0,29.62,East,90,0.7,3.0,99,0.00,,,0.10,NetBSD+Arduino,2013-09-21 06:12:00,
2013-09-20 23:17:00,58.2,58.0,29.62,South,180,1.8,4.5,99,0.00,,,0.10,NetBSD+Arduino,2013-09-21 06:17:00,
2013-09-20 23:22:00,58.2,57.9,29.62,South,180,3.3,6.0,99,0.00,,,0.10,NetBSD+Arduino,2013-09-21 06:22:00,
2013-09-20 23:27:00,58.2,58.0,29.62,SW,225,2.7,6.0,99,0.00,,,0.10,NetBSD+Arduino,2013-09-21 06:27:00,
2013-09-20 23:32:00,58.2,57.9,29.62,South,180,2.2,10.4,99,0.00,,,0.10,NetBSD+Arduino,2013-09-21 06:32:00,
2013-09-20 23:37:00,58.2,57.7,29.62,South,180,1.8,7.5,98,0.00,,,0.10,NetBSD+Arduino,2013-09-21 06:37:00,
2013-09-20 23:42:00,58.1,57.4,29.62,East,90,4.8,10.4,97,0.00,,,0.10,NetBSD+Arduino,2013-09-21 06:42:00,
2013-09-20 23:47:00,58.2,57.2,29.62,SW,225,2.1,7.5,96,0.00,,,0.10,NetBSD+Arduino,2013-09-21 06:47:00,
2013-09-20 23:52:00,58.2,57.3,29.62,South,180,2.7,11.9,96,0.00,,,0.10,NetBSD+Arduino,2013-09-21 06:52:00,
2013-09-20 23:57:00,58.2,57.2,29.62,SW,225,3.0,9.0,96,0.00,,,0.10,NetBSD+Arduino,2013-09-21 06:57:00,